Location: Taukkyan
(23.1052°N, 94.0030°E)
Time: 11:43:09
(UTC+00:00)

Cosmos 2360 Rocket - Pass Details

Date: 06 July 2020
Orbit: 832 x 846 km, 71.0° (Epoch: 15 August)

Event Time Altitude Azimuth Distance (km) Brightness Sun altitude
Rises 13:21:36 0° 188° (S) 3,365 5.1 -10.6°
Reaches altitude 10° 13:24:03 10° 184° (S) 2,435 4.3 -11.1°
Maximum altitude 13:29:32 60° 105° (ESE) 955 2.2 -12.1°
Drops below altitude 10° 13:35:03 10° 27° (NNE) 2,453 4.7 -13.2°
Sets 13:37:31 0° 24° (NNE) 3,391 5.5 -13.7°
